Regional Weather Roundup
Issued by NWS

Home | Current Version | Previous Version | Graphics & Text | Print | Product List | Glossary On
Versions: 1 2 3 4 5 6 7 8 9 10 11 12 13 14 15 16 17 18 19 20 21 22 23 24 25 26 27 28 29 30 31 32 33 34 35 36 37 38 39 40 41 42 43 44 45 46 47 48 49 50
789
ASUS43 KDMX 202106
RWRIA

WEATHER ROUNDUP FOR IOWA
NATIONAL WEATHER SERVICE DES MOINES IA
300 PM CST MON FEB 20 2017

NOTE: "FAIR" INDICATES FEW OR NO CLOUDS BELOW 12,000 FEET WITH NO
SIGNIFICANT WEATHER AND/OR OBSTRUCTIONS TO VISIBILITY.

* - THESE STATIONS ARE NOT NWS STATIONS...THUS NOT UNDER NWS
QUALITY CONTROL.  THEY ALSO DO NOT REPORT WEATHER SUCH
AS PRECIPITATION OR FOG.

IAZ001>003-012>014-020>022-031>034-043>046-202200-
   NORTHWEST IOWA

CITY           SKY/WX    TMP DP  RH WIND       PRES   REMARKS
CARROLL *      PTSUNNY   59  59 100 SW17      29.74R
CHEROKEE *     LGT RAIN  57  57  99 SW12      29.71R
DENISON *      CLOUDY    59  57  94 SW13G20   29.73R
LE MARS *      CLOUDY    50  45  81 W13       29.75R
SHELDON *      CLOUDY    52  52 100 W20G26    29.70R
SIOUX CITY     CLOUDY    55  44  66 NW16      29.75R
SPENCER        CLOUDY    57  56  96 SW13      29.70R
STORM LAKE *   CLOUDY    57  55  94 SW15      29.73R
$$

IAZ055>058-069>071-079>083-090>094-202200-
   SOUTHWEST IOWA

CITY           SKY/WX    TMP DP  RH WIND       PRES   REMARKS
ATLANTIC *     PTSUNNY   59  59 100 SW12      29.77R FOG
CLARINDA *     CLOUDY    61  59  94 SW8         N/A
COUNCIL BLFS * CLOUDY    59  59 100 SW6       29.75S
CRESTON *      CLOUDY    59  59 100 SW12G17   29.80R
HARLAN  *      CLOUDY    59  59 100 SW10      29.79R
LAMONI         CLOUDY    61  58  90 S14       29.80R
RED OAK *      CLOUDY    61  59  94 S8        29.77R
SHENANDOAH *   CLOUDY    61  57  88 S8        29.78R
$$

IAZ047>049-059>061-072>074-084-202200-
   CENTRAL IOWA

CITY           SKY/WX    TMP DP  RH WIND       PRES   REMARKS
AMES           LGT RAIN  58  58 100 S12       29.76R FOG
ANKENY *       CLOUDY    59  57  94 S9G17     29.78S FOG
BOONE *        CLOUDY    57  57 100 SW14G21   29.74S FOG
CHARITON *     CLOUDY    61  57  88 S15G23    29.81R
DES MOINES     DRIZZLE   60  58  92 S13       29.77S
GRINNELL*      DRIZZLE   58  55  91 S12       29.80R
KNOXVILLE *    CLOUDY    61  57  88 SW12G21   29.79R
MARSHALLTOWN   LGT RAIN  57  57 100 S12       29.76S FOG
NEWTON *       CLOUDY    59  57  94 S13       29.78R FOG
PELLA *        CLOUDY    60  57  90 S12       29.81R
PERRY *        DRIZZLE   59  58  97 S12       29.74F
$$

IAZ004>006-015-016-023>025-035-036-202200-
   NORTH CENTRAL IOWA

CITY           SKY/WX    TMP DP  RH WIND       PRES   REMARKS
ALGONA *       CLOUDY    55  55 100 S13       29.71S FOG
CLARION *      CLOUDY    55  55 100 S14       29.73R FOG
ESTHERVILLE    LGT RAIN  55  55 100 SW13      29.69S FOG
FORT DODGE *   CLOUDY    55  54  94 S13       29.73S
MASON CITY     LGT RAIN  52  52 100 S13       29.74R FOG
FOREST CITY *  RAIN      52  52 100 S13       29.72S
IOWA FALLS *   RAIN      57  56  96 S15       29.76R
$$

IAZ007>011-017>019-026>030-037>042-050>054-066-202200-
   NORTHEAST IOWA

CITY           SKY/WX    TMP DP  RH WIND       PRES   REMARKS
CEDAR RAPIDS   CLOUDY    58  57  97 S8        29.80F FOG
CHARLES CITY * LGT RAIN  54  54 100 S18       29.74F
CLINTON *      CLOUDY    67  53  61 S22G29    29.85F
DECORAH *      LGT RAIN  52  52 100 S14G21    29.77S
DUBUQUE        LGT RAIN  57  53  86 S13       29.84F FOG
MONTICELLO *   LGT RAIN  57  55  94 SE6       29.82S
OELWEIN *      LGT RAIN  54  54 100 SE17      29.79F
WATERLOO       LGT RAIN  56  54  93 S16       29.77S FOG
$$

IAZ064-065-067-068-078-202200-
   EAST CENTRAL IOWA

CITY           SKY/WX    TMP DP  RH WIND       PRES   REMARKS
DAVENPORT      PTSUNNY   68  51  54 S16G26    29.83F
IOWA CITY      LGT RAIN  62  56  80 SE6       29.83F
MUSCATINE *    LGT RAIN  64  55  72 S6        29.82F
QUAD CITIES    PTSUNNY   71  51  49 S18G24    29.83F
$$

IAZ062-063-075>077-085>089-095>099-202200-
   SOUTHEAST IOWA

CITY           SKY/WX    TMP DP  RH WIND       PRES   REMARKS
BURLINGTON     CLOUDY    72  52  49 S14       29.81F
FAIRFIELD *    CLOUDY    66  54  63 S8        29.81R
KEOKUK *       CLOUDY    73  48  40 S10G18    29.81R
OTTUMWA        CLOUDY    64  58  80 S13       29.81R
WASHINGTON *   CLOUDY    64  57  77 S10       29.83R
$$

ABBREVIATIONS USED IN REMARKS
   TC - TEMPERATURES IN CELSIUS
  WCI - WIND CHILL INDEX
   HX - HEAT INDEX
  VSB - VISIBILITY
$$





USA.gov is the U.S. government's official web portal to all federal, state and local government web resources and services.